TimeCDT,TemperatureF,Dew PointF,Humidity,Sea Level PressureIn,VisibilityMPH,Wind Direction,Wind SpeedMPH,Gust SpeedMPH,PrecipitationIn,Events,Conditions,WindDirDegrees,DateUTC
12:52 AM,55.0,45.0,69,30.19,10.0,East,13.8,-,N/A,,Clear,80,2013-05-23 05:52:00
1:52 AM,52.0,45.0,77,30.21,10.0,East,12.7,20.7,N/A,,Clear,80,2013-05-23 06:52:00
2:52 AM,50.0,45.0,83,30.22,10.0,East,8.1,-,N/A,,Clear,100,2013-05-23 07:52:00
3:52 AM,48.9,45.0,86,30.22,10.0,East,6.9,-,N/A,,Clear,90,2013-05-23 08:52:00
4:52 AM,48.0,43.0,83,30.23,10.0,Calm,Calm,-,N/A,,Clear,0,2013-05-23 09:52:00
5:52 AM,48.0,42.1,80,30.23,10.0,East,12.7,19.6,N/A,,Clear,100,2013-05-23 10:52:00
6:52 AM,48.0,41.0,77,30.23,10.0,East,10.4,-,N/A,,Clear,100,2013-05-23 11:52:00
7:52 AM,50.0,42.1,74,30.24,10.0,ENE,6.9,-,N/A,,Clear,70,2013-05-23 12:52:00
8:52 AM,52.0,43.0,71,30.23,10.0,ESE,15.0,20.7,N/A,,Clear,120,2013-05-23 13:52:00
9:52 AM,55.0,45.0,69,30.23,10.0,SE,13.8,20.7,N/A,,Clear,130,2013-05-23 14:52:00
10:52 AM,60.1,48.0,64,30.21,10.0,ESE,15.0,-,N/A,,Clear,120,2013-05-23 15:52:00
11:52 AM,63.0,48.0,58,30.19,10.0,ESE,15.0,24.2,N/A,,Clear,120,2013-05-23 16:52:00
12:52 PM,64.0,46.9,54,30.17,10.0,ESE,20.7,28.8,N/A,,Partly Cloudy,110,2013-05-23 17:52:00
1:52 PM,66.0,45.0,47,30.16,10.0,ESE,20.7,31.1,N/A,,Mostly Cloudy,120,2013-05-23 18:52:00
2:52 PM,66.9,45.0,45,30.13,10.0,ESE,23.0,29.9,N/A,,Overcast,110,2013-05-23 19:52:00
3:52 PM,68.0,44.1,42,30.11,10.0,ESE,23.0,34.5,N/A,,Mostly Cloudy,120,2013-05-23 20:52:00
4:52 PM,68.0,44.1,42,30.09,10.0,ESE,23.0,33.4,N/A,,Partly Cloudy,120,2013-05-23 21:52:00
5:52 PM,66.0,44.1,45,30.09,10.0,ESE,24.2,34.5,N/A,,Clear,120,2013-05-23 22:52:00
6:52 PM,66.0,44.1,45,30.07,10.0,ESE,15.0,31.1,N/A,,Clear,120,2013-05-23 23:52:00
7:52 PM,64.0,43.0,46,30.06,10.0,ESE,18.4,31.1,N/A,,Clear,110,2013-05-24 00:52:00
8:52 PM,62.1,39.9,44,30.05,10.0,ESE,17.3,26.5,N/A,,Clear,110,2013-05-24 01:52:00
9:52 PM,60.1,41.0,49,30.04,10.0,ESE,16.1,24.2,N/A,,Mostly Cloudy,110,2013-05-24 02:52:00
10:52 PM,57.9,42.1,56,30.05,10.0,ESE,16.1,25.3,N/A,,Partly Cloudy,110,2013-05-24 03:52:00
11:52 PM,57.0,43.0,59,30.04,10.0,ESE,17.3,25.3,N/A,,Clear,110,2013-05-24 04:52:00